Regional Weather Roundup
Issued by NWS

Home | Current Version | Previous Version | Graphics & Text | Print | Product List | Glossary On
Versions: 1 2 3 4 5 6 7 8 9 10 11 12 13 14 15 16 17 18 19 20 21 22 23 24 25 26 27 28 29 30 31 32 33 34 35 36 37 38 39 40 41 42 43 44 45 46 47 48 49 50
000
ASUS45 KSLC 141410
RWRUT

UTAH REGIONAL WEATHER ROUNDUP
NATIONAL WEATHER SERVICE SALT LAKE CITY UT
700 AM MST SUN FEB 14 2016

UTZ001>011-023>025-141500-

NORTHERN UTAH

CITY           SKY/WX    TMP DP  RH WIND       PRES   REMARKS
BRIGHAM CITY   CLOUDY    28  27  94 CALM      30.23F
HILL AFB       LGT SNOW  27  26  95 E6        30.24F FOG     WCI  21
LOGAN          LGT SNOW  27  26  96 SW8       30.21F FOG     WCI  19
OGDEN          LGT SNOW  29  27  92 SE8       30.23F FOG     WCI  21
PROVO AIRPORT  FOG      N/A N/A N/A CALM      30.23S VSB 3/4
SALT LAKE CITY FOG       29  28  96 N13       30.27R VSB 1/4 WCI  19
VERNAL         CLOUDY    21  17  84 N3        30.14R
WENDOVER       CLOUDY    28  27  93 W5        30.27R WCI  23
WEST JORDAN    CLOUDY    28  28 100 NW15      30.27R VSB 3/4 WCI  17

$$

UTZ012>022-026-027-141500-

SOUTHERN/CENTRAL UTAH

CITY           SKY/WX    TMP DP  RH WIND       PRES   REMARKS
BLANDING       CLOUDY    30  19  62 NE8       30.22S WCI  23
BRYCE CANYON   PTCLDY    15   6  67 W9        30.22R WCI   3
CEDAR CITY     MOCLDY    18  14  84 CALM      30.21R
DELTA          CLOUDY    20  19  97 CALM      30.23S
HANKSVILLE     CLOUDY    30  30 100 CALM      30.18S
MILFORD        CLOUDY    14  11  87 S13       30.22R WCI   0
MOAB/CYNLANDS  CLOUDY    32  29  88 CALM      30.15F
PRICE          CLOUDY    30  19  63 NE3       30.13S
ST GEORGE      CLOUDY    37  19  48 CALM      30.19R
KANAB          PTCLDY    25  21  86 CALM      30.23R

$$

REGIONAL REPORTS     COLORADO/ARIZONA

CITY           SKY/WX    TMP DP  RH WIND       PRES   REMARKS
CRAIG, CO      CLOUDY    14  10  84 CALM      30.15S
GRAND JUNCTION CLOUDY    28  25  88 E5        30.16F WCI  23
RIFLE          CLOUDY    23  18  81 SW6       30.18F WCI  16
MONTROSE       CLOUDY    26  20  77 SE9       30.20F WCI  17
CORTEZ         CLOUDY    22  17  81 E12       30.17S HAZE    WCI  10
PAGE, AZ       MOCLDY    37  29  72 CALM      30.15S
GRAND CANYON   PTCLDY    23  18  81 NE5       30.20S WCI  17
KINGMAN        PTCLDY    45  23  42 E10       30.13R
FLAGSTAFF      PTCLDY    19  14  81 CALM      30.19F

$$

REGIONAL REPORTS    NEVADA/IDAHO/WYOMING

CITY           SKY/WX    TMP DP  RH WIND       PRES   REMARKS
LAS VEGAS, NV  PTCLDY    50  19  29 W3        30.08R
ELY            CLOUDY    18  12  77 S13       30.25S WCI   5
ELKO           CLOUDY    32  27  81 CALM      30.26R
POCATELLO, ID  CLOUDY    36  33  89 SW15      30.17R WCI  27
BURLEY         CLOUDY    37  35  92 SW13      30.17R WCI  29
EVANSTON, WY   CLOUDY    29  21  72 SW16      30.17R WCI  17
ROCK SPRINGS   CLOUDY    31  21  66 W24G33    30.06R WCI  17

$$



USA.gov is the U.S. government's official web portal to all federal, state and local government web resources and services.